TimeEET,TemperatureF,Dew PointF,Humidity,Sea Level PressureIn,VisibilityMPH,Wind Direction,Wind SpeedMPH,Gust SpeedMPH,PrecipitationIn,Events,Conditions,WindDirDegrees,DateUTC
12:00 AM,62.6,35.6,37,30.01,-9999.0,North,12.7,-,N/A,,Clear,360,2013-02-19 22:00:00
1:00 AM,62.6,37.4,39,30.01,-9999.0,North,12.7,-,N/A,,Clear,360,2013-02-19 23:00:00
2:00 AM,62.6,35.6,37,30.01,-9999.0,North,11.5,-,N/A,,Clear,350,2013-02-20 00:00:00
3:00 AM,60.8,39.2,45,30.01,-9999.0,North,8.1,-,N/A,,Clear,350,2013-02-20 01:00:00
4:00 AM,60.8,39.2,45,30.01,-9999.0,North,5.8,-,N/A,,Clear,350,2013-02-20 02:00:00
5:00 AM,59.0,39.2,48,30.04,-9999.0,North,5.8,-,N/A,,Clear,350,2013-02-20 03:00:00
6:00 AM,59.0,39.2,48,30.04,-9999.0,North,6.9,-,N/A,,Clear,350,2013-02-20 04:00:00
7:00 AM,60.8,39.2,45,30.06,-9999.0,North,5.8,-,N/A,,Clear,350,2013-02-20 05:00:00
8:00 AM,66.2,41.0,40,30.06,-9999.0,North,9.2,-,N/A,,Clear,360,2013-02-20 06:00:00
9:00 AM,69.8,41.0,35,30.09,-9999.0,North,11.5,-,N/A,,Clear,10,2013-02-20 07:00:00
11:00 AM,75.2,41.0,29,30.06,-9999.0,NNE,11.5,-,N/A,,Clear,20,2013-02-20 09:00:00
12:00 PM,77.0,42.8,29,30.06,-9999.0,NNE,10.4,-,N/A,,Clear,30,2013-02-20 10:00:00
1:00 PM,78.8,42.8,28,30.04,-9999.0,NNE,10.4,-,N/A,,Clear,30,2013-02-20 11:00:00
2:00 PM,78.8,42.8,28,30.01,-9999.0,NNE,10.4,-,N/A,,Clear,30,2013-02-20 12:00:00
3:00 PM,78.8,42.8,28,30.01,-9999.0,NNE,8.1,-,N/A,,Clear,30,2013-02-20 13:00:00
4:00 PM,78.8,44.6,30,30.01,-9999.0,NE,6.9,-,N/A,,Clear,40,2013-02-20 14:00:00
5:00 PM,75.2,39.2,27,30.01,-9999.0,NNE,5.8,-,N/A,,Clear,30,2013-02-20 15:00:00
6:00 PM,68.0,42.8,40,30.01,-9999.0,NNE,3.5,-,N/A,,Clear,20,2013-02-20 16:00:00
7:00 PM,64.4,42.8,45,30.01,-9999.0,North,3.5,-,N/A,,Clear,360,2013-02-20 17:00:00
8:00 PM,66.2,41.0,40,30.04,-9999.0,NNW,4.6,-,N/A,,Clear,340,2013-02-20 18:00:00
9:00 PM,64.4,39.2,40,30.04,-9999.0,NW,3.5,-,N/A,,Clear,310,2013-02-20 19:00:00
10:00 PM,62.6,35.6,37,30.04,-9999.0,WNW,3.5,-,N/A,,Clear,300,2013-02-20 20:00:00
11:00 PM,64.4,39.2,40,30.04,-9999.0,North,8.1,-,N/A,,Clear,350,2013-02-20 21:00:00